DLH4T EDDM-EDDB

Flight info

Callsign DLH4T
Flight time 0h 48m
Altitude 29000
Route AKINI1N/26R AKINI Y104 MAMOR L132 RUDNO T203 TIVDA DCT ETVIS DCT NAVEK DCT GAVLI T203 ATGUP ATGUP1R
Aircraft A320/M-SDE2E3FGIJ1LORWXYZ/HB1

Departure

Time 2026-05-04 19:54
Airport Munich Airport (EDDM)

Arrival

Time 2026-05-04 20:42
Airport Berlin Brandenburg Airport (EDDB)
Time Latitude Longitude Altitude Speed Heading
2026-05-04 19:27 48.35666 11.79955 1486 ft 0 kts 263°
2026-05-04 19:34 48.35666 11.79956 1485 ft 0 kts 263°
2026-05-04 19:43 48.35668 11.79972 1471 ft 4 kts 263°
2026-05-04 19:43 48.35671 11.80012 1474 ft 4 kts 263°
2026-05-04 19:44 48.35673 11.80044 1474 ft 4 kts 269°
2026-05-04 19:44 48.35669 11.80081 1474 ft 4 kts 310°
2026-05-04 19:44 48.35648 11.80099 1474 ft 3 kts 353°
2026-05-04 19:44 48.35628 11.80103 1476 ft 0 kts 353°
2026-05-04 19:47 48.35665 11.80096 1475 ft 7 kts 352°
2026-05-04 19:47 48.35703 11.80083 1476 ft 4 kts 347°
2026-05-04 19:47 48.35745 11.80073 1481 ft 8 kts 353°
2026-05-04 19:48 48.35800 11.80057 1480 ft 9 kts 338°
2026-05-04 19:48 48.35827 11.79977 1485 ft 9 kts 266°
2026-05-04 19:48 48.35817 11.79855 1477 ft 15 kts 263°
2026-05-04 19:48 48.35804 11.79674 1475 ft 19 kts 263°
2026-05-04 19:49 48.35825 11.79524 1478 ft 14 kts 345°
2026-05-04 19:49 48.35927 11.79508 1482 ft 16 kts 353°
2026-05-04 19:49 48.36022 11.79491 1476 ft 11 kts 353°
2026-05-04 19:49 48.36100 11.79478 1485 ft 12 kts 354°
2026-05-04 19:50 48.36188 11.79467 1479 ft 13 kts
2026-05-04 19:50 48.36223 11.79585 1474 ft 13 kts 83°
2026-05-04 19:50 48.36232 11.79708 1481 ft 11 kts 84°
2026-05-04 19:50 48.36242 11.79836 1480 ft 16 kts 83°
2026-05-04 19:51 48.36259 11.80050 1485 ft 23 kts 83°
2026-05-04 19:51 48.36278 11.80295 1475 ft 25 kts 83°
2026-05-04 19:51 48.36303 11.80496 1475 ft 15 kts 53°
2026-05-04 19:51 48.36373 11.80460 1471 ft 13 kts 296°
2026-05-04 19:52 48.36408 11.80337 1485 ft 11 kts 293°
2026-05-04 19:52 48.36421 11.80291 1483 ft 2 kts 293°
2026-05-04 19:52 48.36439 11.80226 1477 ft 13 kts 292°
2026-05-04 19:52 48.36490 11.80071 1479 ft 19 kts 299°
2026-05-04 19:53 48.36515 11.79873 1485 ft 22 kts 263°
2026-05-04 19:53 48.36479 11.79392 1475 ft 82 kts 263°
2026-05-04 19:53 48.36388 11.78199 1487 ft 145 kts 263°
2026-05-04 19:53 48.36268 11.76559 1940 ft 161 kts 264°
2026-05-04 19:54 48.36135 11.74870 2689 ft 165 kts 263°
2026-05-04 19:54 48.35991 11.73061 3139 ft 185 kts 263°
2026-05-04 19:54 48.35833 11.71063 3622 ft 199 kts 263°
2026-05-04 19:54 48.35863 11.68928 4087 ft 215 kts 285°
2026-05-04 19:55 48.36272 11.67541 4390 ft 225 kts 303°
2026-05-04 19:55 48.37422 11.65887 4905 ft 237 kts 328°
2026-05-04 19:55 48.39031 11.65081 5540 ft 249 kts 350°
2026-05-04 19:55 48.40766 11.64616 6327 ft 260 kts 348°
2026-05-04 19:56 48.42597 11.64086 6983 ft 276 kts 347°
2026-05-04 19:56 48.44540 11.63651 7718 ft 288 kts 358°
2026-05-04 19:56 48.46545 11.63997 8626 ft 294 kts 14°
2026-05-04 19:56 48.48432 11.65231 9554 ft 299 kts 32°
2026-05-04 19:57 48.50015 11.67323 10282 ft 309 kts 52°
2026-05-04 19:57 48.51296 11.69967 11071 ft 315 kts 55°
2026-05-04 19:57 48.52581 11.72667 11914 ft 318 kts 55°
2026-05-04 19:57 48.53884 11.75396 12772 ft 322 kts 55°
2026-05-04 19:58 48.55204 11.78142 13667 ft 324 kts 55°
2026-05-04 19:58 48.56536 11.80907 14414 ft 327 kts 55°
2026-05-04 19:58 48.57882 11.83702 15157 ft 331 kts 55°
2026-05-04 19:58 48.59242 11.86526 15903 ft 334 kts 54°
2026-05-04 19:59 48.60614 11.89380 16619 ft 338 kts 54°
2026-05-04 19:59 48.62003 11.92275 17358 ft 341 kts 54°
2026-05-04 19:59 48.63403 11.95194 18084 ft 345 kts 54°
2026-05-04 19:59 48.64819 11.98143 18721 ft 348 kts 54°
2026-05-04 20:00 48.66250 12.01125 19336 ft 352 kts 54°
2026-05-04 20:00 48.67692 12.04139 19952 ft 355 kts 54°
2026-05-04 20:00 48.69238 12.07070 20578 ft 358 kts 46°
2026-05-04 20:00 48.71142 12.09510 21174 ft 361 kts 33°
2026-05-04 20:01 48.73355 12.11330 21762 ft 363 kts 22°
2026-05-04 20:01 48.75679 12.12891 22336 ft 368 kts 23°
2026-05-04 20:01 48.78065 12.14544 22484 ft 385 kts 24°
2026-05-04 20:01 48.80539 12.16312 22637 ft 401 kts 25°
2026-05-04 20:02 48.83078 12.18163 23017 ft 408 kts 25°
2026-05-04 20:02 48.85646 12.20050 23506 ft 412 kts 25°
2026-05-04 20:02 48.88240 12.21955 23973 ft 416 kts 25°
2026-05-04 20:02 48.90859 12.23854 24440 ft 418 kts 24°
2026-05-04 20:03 48.93500 12.25726 24901 ft 420 kts 24°
2026-05-04 20:03 48.96162 12.27589 25359 ft 423 kts 24°
2026-05-04 20:03 48.98847 12.29461 25811 ft 425 kts 24°
2026-05-04 20:03 49.01539 12.31341 26251 ft 427 kts 24°
2026-05-04 20:04 49.04250 12.33248 26701 ft 430 kts 24°
2026-05-04 20:04 49.06972 12.35170 27138 ft 432 kts 24°
2026-05-04 20:04 49.09705 12.37103 27592 ft 435 kts 24°
2026-05-04 20:04 49.12454 12.39054 28028 ft 437 kts 24°
2026-05-04 20:05 49.15215 12.41019 28451 ft 439 kts 24°
2026-05-04 20:05 49.17991 12.42996 28826 ft 441 kts 24°
2026-05-04 20:05 49.20769 12.44975 28926 ft 436 kts 24°
2026-05-04 20:05 49.23462 12.46898 28930 ft 418 kts 24°
2026-05-04 20:06 49.26064 12.48761 28932 ft 409 kts 24°
2026-05-04 20:06 49.31189 12.52426 28939 ft 406 kts 23°
2026-05-04 20:07 49.36017 12.56908 28934 ft 407 kts 36°
2026-05-04 20:07 49.40517 12.62095 28945 ft 407 kts 36°
2026-05-04 20:08 49.45226 12.66864 28946 ft 405 kts 24°
2026-05-04 20:08 49.50310 12.70588 28951 ft 405 kts 24°
2026-05-04 20:09 49.55383 12.74326 28950 ft 404 kts 24°
2026-05-04 20:09 49.60446 12.78081 28946 ft 404 kts 24°
2026-05-04 20:10 49.65577 12.81535 28940 ft 401 kts 14°
2026-05-04 20:10 49.71044 12.83030 28945 ft 399 kts
2026-05-04 20:11 49.76528 12.84286 28943 ft 398 kts
2026-05-04 20:11 49.81998 12.85555 28942 ft 398 kts
2026-05-04 20:12 49.87473 12.86825 28946 ft 397 kts
2026-05-04 20:12 49.92935 12.88092 28951 ft 397 kts
2026-05-04 20:13 49.98397 12.89367 28971 ft 396 kts
2026-05-04 20:13 50.03790 12.91163 28968 ft 398 kts 14°
2026-05-04 20:14 50.09080 12.93733 28965 ft 398 kts 15°
2026-05-04 20:14 50.14367 12.96319 28962 ft 398 kts 15°
2026-05-04 20:15 50.19656 12.98901 28963 ft 399 kts 14°
2026-05-04 20:15 50.24951 13.01505 28958 ft 399 kts 14°
2026-05-04 20:16 50.30250 13.04100 28959 ft 399 kts 14°
2026-05-04 20:16 50.35562 13.06627 28954 ft 399 kts 14°
2026-05-04 20:17 50.40879 13.09150 28952 ft 399 kts 14°
2026-05-04 20:17 50.46188 13.11690 28955 ft 399 kts 14°
2026-05-04 20:18 50.51451 13.14487 28960 ft 402 kts 23°
2026-05-04 20:18 50.56410 13.18462 28960 ft 403 kts 24°
2026-05-04 20:19 50.61400 13.22467 28951 ft 403 kts 24°
2026-05-04 20:19 50.66401 13.26486 28954 ft 404 kts 24°
2026-05-04 20:20 50.71406 13.30528 28959 ft 404 kts 24°
2026-05-04 20:20 50.76411 13.34584 28958 ft 404 kts 24°
2026-05-04 20:21 50.81417 13.38655 28973 ft 405 kts 24°
2026-05-04 20:21 50.88940 13.44777 28958 ft 406 kts 24°
2026-05-04 20:22 50.94060 13.48462 28953 ft 403 kts 13°
2026-05-04 20:22 50.99634 13.50160 28128 ft 413 kts
2026-05-04 20:23 51.02474 13.50918 27428 ft 414 kts
2026-05-04 20:23 51.05307 13.51683 26811 ft 412 kts
2026-05-04 20:23 51.08153 13.52452 25949 ft 417 kts
2026-05-04 20:23 51.11011 13.53224 25290 ft 416 kts
2026-05-04 20:24 51.13862 13.53996 24707 ft 414 kts
2026-05-04 20:24 51.16691 13.54765 24138 ft 412 kts
2026-05-04 20:24 51.19508 13.55530 23596 ft 409 kts
2026-05-04 20:24 51.22300 13.56287 22984 ft 406 kts
2026-05-04 20:25 51.25080 13.57038 22390 ft 404 kts
2026-05-04 20:25 51.27841 13.57784 21828 ft 401 kts
2026-05-04 20:25 51.30583 13.58528 21281 ft 398 kts
2026-05-04 20:25 51.33303 13.59271 20750 ft 396 kts
2026-05-04 20:26 51.36007 13.60011 20238 ft 393 kts
2026-05-04 20:26 51.38695 13.60745 19732 ft 391 kts
2026-05-04 20:26 51.41365 13.61474 19249 ft 388 kts
2026-05-04 20:26 51.44022 13.62203 18775 ft 386 kts
2026-05-04 20:27 51.46662 13.62928 18314 ft 384 kts
2026-05-04 20:27 51.49249 13.63637 17824 ft 381 kts
2026-05-04 20:27 51.51851 13.64353 17372 ft 377 kts
2026-05-04 20:27 51.54435 13.64988 16906 ft 373 kts
2026-05-04 20:28 51.56993 13.64826 16440 ft 365 kts 347°
2026-05-04 20:28 51.59411 13.63753 15984 ft 358 kts 334°
2026-05-04 20:28 51.61676 13.62134 15510 ft 355 kts 332°
2026-05-04 20:28 51.63928 13.60501 15016 ft 354 kts 332°
2026-05-04 20:29 51.66172 13.58878 14565 ft 352 kts 332°
2026-05-04 20:29 51.68400 13.57270 14116 ft 350 kts 332°
2026-05-04 20:29 51.70620 13.55666 13698 ft 348 kts 332°
2026-05-04 20:29 51.72824 13.54070 13220 ft 346 kts 333°
2026-05-04 20:30 51.75012 13.52490 12765 ft 343 kts 333°
2026-05-04 20:30 51.77168 13.50935 12390 ft 337 kts 333°
2026-05-04 20:30 51.79303 13.49394 11942 ft 335 kts 333°
2026-05-04 20:30 51.81419 13.47860 11486 ft 332 kts 333°
2026-05-04 20:31 51.83520 13.46331 11034 ft 330 kts 333°
2026-05-04 20:31 51.85605 13.44811 10632 ft 323 kts 333°
2026-05-04 20:31 51.87576 13.43382 10440 ft 300 kts 332°
2026-05-04 20:31 51.89453 13.42019 9938 ft 292 kts 332°
2026-05-04 20:32 51.91294 13.40673 9296 ft 289 kts 332°
2026-05-04 20:32 51.93115 13.39338 8627 ft 286 kts 332°
2026-05-04 20:32 51.94916 13.38017 7958 ft 283 kts 333°
2026-05-04 20:32 51.96698 13.36708 7297 ft 280 kts 333°
2026-05-04 20:33 51.98469 13.35409 6683 ft 280 kts 333°
2026-05-04 20:33 52.00236 13.34110 6319 ft 277 kts 333°
2026-05-04 20:33 52.01963 13.32840 5934 ft 275 kts 333°
2026-05-04 20:33 52.03698 13.31567 5628 ft 269 kts 334°
2026-05-04 20:34 52.05380 13.30328 5361 ft 263 kts 334°
2026-05-04 20:34 52.07037 13.29108 4992 ft 260 kts 334°
2026-05-04 20:34 52.08659 13.27915 4788 ft 252 kts 334°
2026-05-04 20:34 52.10231 13.26761 4588 ft 243 kts 334°
2026-05-04 20:35 52.11752 13.25646 4336 ft 237 kts 335°
2026-05-04 20:35 52.13226 13.24564 4180 ft 228 kts 335°
2026-05-04 20:35 52.14662 13.23505 3922 ft 225 kts 335°
2026-05-04 20:35 52.16083 13.22454 3621 ft 224 kts 335°
2026-05-04 20:36 52.17522 13.21523 3325 ft 222 kts 348°
2026-05-04 20:36 52.19051 13.21547 3065 ft 220 kts 10°
2026-05-04 20:36 52.20555 13.21998 2991 ft 220 kts 10°
2026-05-04 20:36 52.22065 13.22452 3000 ft 221 kts 10°
2026-05-04 20:37 52.23578 13.22905 3001 ft 221 kts 10°
2026-05-04 20:37 52.25069 13.23351 3001 ft 221 kts 10°
2026-05-04 20:37 52.26566 13.23799 2998 ft 215 kts 10°
2026-05-04 20:37 52.27981 13.24415 2969 ft 206 kts 25°
2026-05-04 20:38 52.29123 13.25682 2854 ft 193 kts 44°
2026-05-04 20:38 52.29886 13.27424 2643 ft 186 kts 65°
2026-05-04 20:38 52.30358 13.29360 2417 ft 181 kts 67°
2026-05-04 20:38 52.30814 13.31251 2178 ft 177 kts 67°
2026-05-04 20:39 52.31249 13.33066 1958 ft 165 kts 68°
2026-05-04 20:39 52.31653 13.34750 1738 ft 154 kts 67°
2026-05-04 20:39 52.32032 13.36333 1536 ft 146 kts 66°
2026-05-04 20:39 52.32398 13.37864 1340 ft 143 kts 67°
2026-05-04 20:40 52.32758 13.39368 1146 ft 140 kts 67°
2026-05-04 20:40 52.33115 13.40848 953 ft 141 kts 66°
2026-05-04 20:40 52.33471 13.42344 786 ft 141 kts 68°
2026-05-04 20:40 52.33826 13.43841 593 ft 142 kts 68°
2026-05-04 20:41 52.34184 13.45341 407 ft 140 kts 67°
2026-05-04 20:41 52.34532 13.46809 220 ft 137 kts 68°
2026-05-04 20:41 52.34859 13.48172 154 ft 112 kts 69°
2026-05-04 20:41 52.35078 13.49094 154 ft 62 kts 69°
2026-05-04 20:42 52.35211 13.49646 154 ft 46 kts 67°
2026-05-04 20:42 52.35351 13.49960 154 ft 30 kts 39°
2026-05-04 20:42 52.35492 13.50146 154 ft 24 kts 39°
2026-05-04 20:42 52.35605 13.50318 155 ft 15 kts 68°
2026-05-04 20:43 52.35648 13.50497 155 ft 18 kts 69°
2026-05-04 20:43 52.35697 13.50703 155 ft 21 kts 69°
2026-05-04 20:43 52.35783 13.50816 155 ft 18 kts 344°
2026-05-04 20:43 52.35908 13.50739 155 ft 20 kts 339°
2026-05-04 20:44 52.35998 13.50682 155 ft 21 kts 339°
2026-05-04 20:44 52.36107 13.50613 155 ft 15 kts 339°
2026-05-04 20:44 52.36192 13.50559 155 ft 10 kts 338°
2026-05-04 20:44 52.36252 13.50536 155 ft 5 kts 22°
2026-05-04 20:45 52.36267 13.50585 155 ft 4 kts 68°
2026-05-04 20:45 52.36280 13.50641 155 ft 4 kts 69°
2026-05-04 20:45 52.36283 13.50651 155 ft 0 kts 69°